Tracking 19288 objects as of 20-Nov-2018
HD Live streaming from Space Station
objects crossing your sky now

VANGUARD 2

Track VANGUARD 2 now!
10-day predictions
VANGUARD 2 is classified as:


NORAD ID: 11
Int'l Code: 1959-001A
Perigee: 560.3 km
Apogee: 2,946.2 km
Inclination: 32.9 °
Period: 121.5 minutes
Semi major axis: 8124 km
RCS: 0.3823 m2 (medium)
Launch date: February 17, 1959
Source: United States (US)
Launch site: AIR FORCE EASTERN TEST RANGE (AFETR)
aabbcc
Your satellite tracking list
Your tracking list is empty




NASA's NSSDC Master Catalog

Two Line Element Set (TLE):
1    11U 59001A   18324.19446162  .00000298  00000-0  13839-3 0  9994
2    11  32.8792  55.0044 1468343 244.2996  99.8947 11.85570783548422
Source of the keplerian elements: AFSPC